Year,Month,Day,Hour,Minute,Value (Times are PST for temperature in C)
2019,06,25,00,00,12.30
2019,06,25,00,01,12.30
2019,06,25,00,02,12.20
2019,06,25,00,03,12.20
2019,06,25,00,04,12.20
2019,06,25,00,05,12.20
2019,06,25,00,06,12.20
2019,06,25,00,07,12.20
2019,06,25,00,08,12.20
2019,06,25,00,09,12.20
2019,06,25,00,10,12.20
2019,06,25,00,11,12.20
2019,06,25,00,12,12.20
2019,06,25,00,13,12.20
2019,06,25,00,14,12.20
2019,06,25,00,15,12.20
2019,06,25,00,16,12.10
2019,06,25,00,17,12.10
2019,06,25,00,18,12.10
2019,06,25,00,19,12.00
2019,06,25,00,20,12.00
2019,06,25,00,21,12.00
2019,06,25,00,22,12.00
2019,06,25,00,23,12.00
2019,06,25,00,24,12.00
2019,06,25,00,25,11.90
2019,06,25,00,26,11.90
2019,06,25,00,27,11.90
2019,06,25,00,28,11.90
2019,06,25,00,29,11.80
2019,06,25,00,30,11.80
2019,06,25,00,31,11.80
2019,06,25,00,32,11.80
2019,06,25,00,33,11.80
2019,06,25,00,34,11.80
2019,06,25,00,35,11.80
2019,06,25,00,36,11.80
2019,06,25,00,37,11.80
2019,06,25,00,38,11.80
2019,06,25,00,39,11.80
2019,06,25,00,40,11.80
2019,06,25,00,41,11.80
2019,06,25,00,42,11.80
2019,06,25,00,43,11.80
2019,06,25,00,44,11.80
2019,06,25,00,45,11.80
2019,06,25,00,46,11.80
2019,06,25,00,47,11.80
2019,06,25,00,48,11.70
2019,06,25,00,49,11.70
2019,06,25,00,50,11.70
2019,06,25,00,51,11.70
2019,06,25,00,52,11.60
2019,06,25,00,53,11.60
2019,06,25,00,54,11.60
2019,06,25,00,55,11.60
2019,06,25,00,56,11.60
2019,06,25,00,57,11.60
2019,06,25,00,58,11.60
2019,06,25,00,59,11.60
2019,06,25,01,00,11.60
2019,06,25,01,01,11.60
2019,06,25,01,02,11.60
2019,06,25,01,03,11.40
2019,06,25,01,04,11.40
2019,06,25,01,05,11.40
2019,06,25,01,06,11.40
2019,06,25,01,07,11.40
2019,06,25,01,08,11.40
2019,06,25,01,09,11.40
2019,06,25,01,10,11.30
2019,06,25,01,11,11.30
2019,06,25,01,12,11.30
2019,06,25,01,13,11.30
2019,06,25,01,14,11.20
2019,06,25,01,15,11.20
2019,06,25,01,16,11.20
2019,06,25,01,17,11.20
2019,06,25,01,18,11.10
2019,06,25,01,19,11.10
2019,06,25,01,20,11.10
2019,06,25,01,21,11.10
2019,06,25,01,22,11.10
2019,06,25,01,23,11.10
2019,06,25,01,24,11.10
2019,06,25,01,25,11.10
2019,06,25,01,26,11.10
2019,06,25,01,27,11.10
2019,06,25,01,28,11.10
2019,06,25,01,29,11.10
2019,06,25,01,30,11.10
2019,06,25,01,31,11.10
2019,06,25,01,32,11.10
2019,06,25,01,33,11.10
2019,06,25,01,34,11.10
2019,06,25,01,35,11.10
2019,06,25,01,36,11.10
2019,06,25,01,37,11.10
2019,06,25,01,38,11.10
2019,06,25,01,39,11.10
2019,06,25,01,40,11.00
2019,06,25,01,41,10.90
2019,06,25,01,42,10.90
2019,06,25,01,43,10.90
2019,06,25,01,44,10.90
2019,06,25,01,45,10.90
2019,06,25,01,46,10.90
2019,06,25,01,47,10.90
2019,06,25,01,48,10.90
2019,06,25,01,49,10.90
2019,06,25,01,50,10.80
2019,06,25,01,51,10.80
2019,06,25,01,52,10.80
2019,06,25,01,53,10.80
2019,06,25,01,54,10.70
2019,06,25,01,55,10.70
2019,06,25,01,56,10.70
2019,06,25,01,57,10.70
2019,06,25,01,58,10.70
2019,06,25,01,59,10.60
2019,06,25,02,00,10.60
2019,06,25,02,01,10.60
2019,06,25,02,02,10.60
2019,06,25,02,03,10.60
2019,06,25,02,04,10.60
2019,06,25,02,05,10.60
2019,06,25,02,06,10.50
2019,06,25,02,07,10.40
2019,06,25,02,08,10.40
2019,06,25,02,09,10.40
2019,06,25,02,10,10.40
2019,06,25,02,11,10.40
2019,06,25,02,12,10.40
2019,06,25,02,13,10.40
2019,06,25,02,14,10.40
2019,06,25,02,15,10.40
2019,06,25,02,16,10.40
2019,06,25,02,17,10.40
2019,06,25,02,18,10.40
2019,06,25,02,19,10.40
2019,06,25,02,20,10.40
2019,06,25,02,21,10.30
2019,06,25,02,22,10.30
2019,06,25,02,23,10.30
2019,06,25,02,24,10.30
2019,06,25,02,25,10.30
2019,06,25,02,26,10.30
2019,06,25,02,27,10.20
2019,06,25,02,28,10.20
2019,06,25,02,29,10.20
2019,06,25,02,30,10.20
2019,06,25,02,31,10.20
2019,06,25,02,32,10.10
2019,06,25,02,33,10.10
2019,06,25,02,34,10.10
2019,06,25,02,35,10.10
2019,06,25,02,36,10.10
2019,06,25,02,37,10.10
2019,06,25,02,38,10.10
2019,06,25,02,39,10.10
2019,06,25,02,40,10.00
2019,06,25,02,41,9.90
2019,06,25,02,42,9.90
2019,06,25,02,43,9.90
2019,06,25,02,44,9.90
2019,06,25,02,45,9.90
2019,06,25,02,46,9.90
2019,06,25,02,47,9.90
2019,06,25,02,48,9.90
2019,06,25,02,49,9.90
2019,06,25,02,50,9.90
2019,06,25,02,51,9.90
2019,06,25,02,52,9.90
2019,06,25,02,53,9.90
2019,06,25,02,54,9.90
2019,06,25,02,55,9.90
2019,06,25,02,56,9.90
2019,06,25,02,57,9.90
2019,06,25,02,58,10.00
2019,06,25,02,59,10.10
2019,06,25,03,00,10.10
2019,06,25,03,01,10.20
2019,06,25,03,02,10.20
2019,06,25,03,03,10.20
2019,06,25,03,04,10.20
2019,06,25,03,05,10.30
2019,06,25,03,06,10.30
2019,06,25,03,07,10.30
2019,06,25,03,08,10.40
2019,06,25,03,09,10.40
2019,06,25,03,10,10.40
2019,06,25,03,11,10.40
2019,06,25,03,12,10.40
2019,06,25,03,13,10.40
2019,06,25,03,14,10.30
2019,06,25,03,15,10.30
2019,06,25,03,16,10.30
2019,06,25,03,17,10.30
2019,06,25,03,18,10.30
2019,06,25,03,19,10.30
2019,06,25,03,20,10.30
2019,06,25,03,21,10.30
2019,06,25,03,22,10.30
2019,06,25,03,23,10.30
2019,06,25,03,24,10.30
2019,06,25,03,25,10.30
2019,06,25,03,26,10.30
2019,06,25,03,27,10.30
2019,06,25,03,28,10.30
2019,06,25,03,29,10.30
2019,06,25,03,30,10.30
2019,06,25,03,31,10.30
2019,06,25,03,32,10.30
2019,06,25,03,33,10.30
2019,06,25,03,34,10.20
2019,06,25,03,35,10.20
2019,06,25,03,36,10.20
2019,06,25,03,37,10.20
2019,06,25,03,38,10.20
2019,06,25,03,39,10.20
2019,06,25,03,40,10.20
2019,06,25,03,41,10.20
2019,06,25,03,42,10.20
2019,06,25,03,43,10.20
2019,06,25,03,44,10.20
2019,06,25,03,45,10.20
2019,06,25,03,46,10.10
2019,06,25,03,47,10.10
2019,06,25,03,48,10.10
2019,06,25,03,49,10.10
2019,06,25,03,50,10.10
2019,06,25,03,51,10.10
2019,06,25,03,52,10.10
2019,06,25,03,53,10.10
2019,06,25,03,54,10.00
2019,06,25,03,55,9.90
2019,06,25,03,56,9.90
2019,06,25,03,57,9.90
2019,06,25,03,58,9.90
2019,06,25,03,59,10.00
2019,06,25,04,00,10.10
2019,06,25,04,01,10.10
2019,06,25,04,02,10.10
2019,06,25,04,03,10.10
2019,06,25,04,04,10.00
2019,06,25,04,05,9.90
2019,06,25,04,06,9.90
2019,06,25,04,07,9.90
2019,06,25,04,08,9.90
2019,06,25,04,09,9.90
2019,06,25,04,10,9.90
2019,06,25,04,11,9.90
2019,06,25,04,12,9.90
2019,06,25,04,13,9.90
2019,06,25,04,14,9.90
2019,06,25,04,15,9.90
2019,06,25,04,16,9.90
2019,06,25,04,17,9.80
2019,06,25,04,18,9.80
2019,06,25,04,19,9.80
2019,06,25,04,20,9.80
2019,06,25,04,21,9.80
2019,06,25,04,22,9.70
2019,06,25,04,23,9.70
2019,06,25,04,24,9.70
2019,06,25,04,25,9.70
2019,06,25,04,26,9.70
2019,06,25,04,27,9.70
2019,06,25,04,28,9.70
2019,06,25,04,29,9.70
2019,06,25,04,30,9.70
2019,06,25,04,31,9.70
2019,06,25,04,32,9.70
2019,06,25,04,33,9.70
2019,06,25,04,34,9.70
2019,06,25,04,35,9.70
2019,06,25,04,36,9.70
2019,06,25,04,37,9.70
2019,06,25,04,38,9.70
2019,06,25,04,39,9.70
2019,06,25,04,40,9.70
2019,06,25,04,41,9.70
2019,06,25,04,42,9.70
2019,06,25,04,43,9.70
2019,06,25,04,44,9.60
2019,06,25,04,45,9.60
2019,06,25,04,46,9.60
2019,06,25,04,47,9.60
2019,06,25,04,48,9.60
2019,06,25,04,49,9.60
2019,06,25,04,50,9.50
2019,06,25,04,51,9.50
2019,06,25,04,52,9.50
2019,06,25,04,53,9.50
2019,06,25,04,54,9.40
2019,06,25,04,55,9.40
2019,06,25,04,56,9.40
2019,06,25,04,57,9.40
2019,06,25,04,58,9.30
2019,06,25,04,59,9.30
2019,06,25,05,00,9.30
2019,06,25,05,01,9.30
2019,06,25,05,02,9.30
2019,06,25,05,03,9.20
2019,06,25,05,04,9.20
2019,06,25,05,05,9.20
2019,06,25,05,06,9.20
2019,06,25,05,07,9.20
2019,06,25,05,08,9.20
2019,06,25,05,09,9.20
2019,06,25,05,10,9.20
2019,06,25,05,11,9.20
2019,06,25,05,12,9.20
2019,06,25,05,13,9.10
2019,06,25,05,14,9.10
2019,06,25,05,15,9.10
2019,06,25,05,16,9.00
2019,06,25,05,17,9.00
2019,06,25,05,18,9.00
2019,06,25,05,19,8.90
2019,06,25,05,20,8.90
2019,06,25,05,21,8.90
2019,06,25,05,22,8.90
2019,06,25,05,23,8.90
2019,06,25,05,24,8.90
2019,06,25,05,25,8.90
2019,06,25,05,26,8.90
2019,06,25,05,27,9.00
2019,06,25,05,28,9.00
2019,06,25,05,29,9.00
2019,06,25,05,30,9.00
2019,06,25,05,31,9.00
2019,06,25,05,32,9.00
2019,06,25,05,33,9.00
2019,06,25,05,34,9.10
2019,06,25,05,35,9.10
2019,06,25,05,36,9.20
2019,06,25,05,37,9.20
2019,06,25,05,38,9.20
2019,06,25,05,39,9.30
2019,06,25,05,40,9.30
2019,06,25,05,41,9.40
2019,06,25,05,42,9.40
2019,06,25,05,43,9.50
2019,06,25,05,44,9.50
2019,06,25,05,45,9.50
2019,06,25,05,46,9.60
2019,06,25,05,47,9.60
2019,06,25,05,48,9.70
2019,06,25,05,49,9.70
2019,06,25,05,50,9.70
2019,06,25,05,51,9.70
2019,06,25,05,52,9.70
2019,06,25,05,53,9.70
2019,06,25,05,54,9.80
2019,06,25,05,55,9.80
2019,06,25,05,56,9.90
2019,06,25,05,57,9.90
2019,06,25,05,58,9.90
2019,06,25,05,59,9.90
2019,06,25,06,00,10.00
2019,06,25,06,01,10.10
2019,06,25,06,02,10.10
2019,06,25,06,03,10.10
2019,06,25,06,04,10.10
2019,06,25,06,05,10.10
2019,06,25,06,06,10.00
2019,06,25,06,07,10.00
2019,06,25,06,08,10.10
2019,06,25,06,09,10.10
2019,06,25,06,10,10.10
2019,06,25,06,11,10.10
2019,06,25,06,12,10.10
2019,06,25,06,13,10.10
2019,06,25,06,14,10.10
2019,06,25,06,15,10.20
2019,06,25,06,16,10.20
2019,06,25,06,17,10.20
2019,06,25,06,18,10.20
2019,06,25,06,19,10.30
2019,06,25,06,20,10.30
2019,06,25,06,21,10.30
2019,06,25,06,22,10.40
2019,06,25,06,23,10.40
2019,06,25,06,24,10.40
2019,06,25,06,25,10.50
2019,06,25,06,26,10.60
2019,06,25,06,27,10.60
2019,06,25,06,28,10.60
2019,06,25,06,29,10.70
2019,06,25,06,30,10.70
2019,06,25,06,31,10.80
2019,06,25,06,32,10.80
2019,06,25,06,33,10.90
2019,06,25,06,34,10.90
2019,06,25,06,35,11.00
2019,06,25,06,36,11.10
2019,06,25,06,37,11.10
2019,06,25,06,38,11.20
2019,06,25,06,39,11.20
2019,06,25,06,40,11.30
2019,06,25,06,41,11.40
2019,06,25,06,42,11.40
2019,06,25,06,43,11.50
2019,06,25,06,44,11.60
2019,06,25,06,45,11.60
2019,06,25,06,46,11.60
2019,06,25,06,47,11.70
2019,06,25,06,48,11.70
2019,06,25,06,49,11.70
2019,06,25,06,50,11.80
2019,06,25,06,51,11.80
2019,06,25,06,52,11.80
2019,06,25,06,53,11.80
2019,06,25,06,54,11.80
2019,06,25,06,55,11.80
2019,06,25,06,56,11.90
2019,06,25,06,57,11.90
2019,06,25,06,58,11.90
2019,06,25,06,59,11.90
2019,06,25,07,00,11.90
2019,06,25,07,01,11.90
2019,06,25,07,02,12.00
2019,06,25,07,03,12.00
2019,06,25,07,04,12.00
2019,06,25,07,05,12.00
2019,06,25,07,06,12.10
2019,06,25,07,07,12.10
2019,06,25,07,08,12.20
2019,06,25,07,09,12.20
2019,06,25,07,10,12.30
2019,06,25,07,11,12.30
2019,06,25,07,12,12.30
2019,06,25,07,13,12.40
2019,06,25,07,14,12.40
2019,06,25,07,15,12.40
2019,06,25,07,16,12.50
2019,06,25,07,17,12.50
2019,06,25,07,18,12.40
2019,06,25,07,19,12.40
2019,06,25,07,20,12.50
2019,06,25,07,21,12.50
2019,06,25,07,22,12.60
2019,06,25,07,23,12.60
2019,06,25,07,24,12.70
2019,06,25,07,25,12.70
2019,06,25,07,26,12.70
2019,06,25,07,27,12.70
2019,06,25,07,28,12.70
2019,06,25,07,29,12.70
2019,06,25,07,30,12.70
2019,06,25,07,31,12.70
2019,06,25,07,32,12.70
2019,06,25,07,33,12.70
2019,06,25,07,34,12.80
2019,06,25,07,35,12.80
2019,06,25,07,36,12.80
2019,06,25,07,37,12.90
2019,06,25,07,38,12.90
2019,06,25,07,39,13.00
2019,06,25,07,40,13.10
2019,06,25,07,41,13.10
2019,06,25,07,42,13.20
2019,06,25,07,43,13.20
2019,06,25,07,44,13.30
2019,06,25,07,45,13.30
2019,06,25,07,46,13.30
2019,06,25,07,47,13.20
2019,06,25,07,48,13.20
2019,06,25,07,49,13.30
2019,06,25,07,50,13.30
2019,06,25,07,51,13.30
2019,06,25,07,52,13.30
2019,06,25,07,53,13.50
2019,06,25,07,54,13.50
2019,06,25,07,55,13.50
2019,06,25,07,56,13.50
2019,06,25,07,57,13.60
2019,06,25,07,58,13.70
2019,06,25,07,59,13.70
2019,06,25,08,00,13.80
2019,06,25,08,01,13.90
2019,06,25,08,02,14.00
2019,06,25,08,03,14.00
2019,06,25,08,04,14.00
2019,06,25,08,05,14.00
2019,06,25,08,06,14.00
2019,06,25,08,07,14.00
2019,06,25,08,08,14.10
2019,06,25,08,09,14.10
2019,06,25,08,10,14.10
2019,06,25,08,11,14.20
2019,06,25,08,12,14.20
2019,06,25,08,13,14.30
2019,06,25,08,14,14.40
2019,06,25,08,15,14.50
2019,06,25,08,16,14.50
2019,06,25,08,17,14.60
2019,06,25,08,18,14.60
2019,06,25,08,19,14.70
2019,06,25,08,20,14.80
2019,06,25,08,21,14.80
2019,06,25,08,22,15.00
2019,06,25,08,23,15.10
2019,06,25,08,24,15.00
2019,06,25,08,25,15.00
2019,06,25,08,26,15.00
2019,06,25,08,27,15.00
2019,06,25,08,28,15.00
2019,06,25,08,29,15.00
2019,06,25,08,30,15.10
2019,06,25,08,31,15.10
2019,06,25,08,32,15.20
2019,06,25,08,33,15.20
2019,06,25,08,34,15.20
2019,06,25,08,35,15.10
2019,06,25,08,36,15.10
2019,06,25,08,37,15.00
2019,06,25,08,38,14.90
2019,06,25,08,39,14.80
2019,06,25,08,40,14.60
2019,06,25,08,41,14.50
2019,06,25,08,42,14.40
2019,06,25,08,43,14.20
2019,06,25,08,44,14.10
2019,06,25,08,45,13.90
2019,06,25,08,46,13.80
2019,06,25,08,47,13.70
2019,06,25,08,48,13.80
2019,06,25,08,49,13.80
2019,06,25,08,50,13.80
2019,06,25,08,51,13.80
2019,06,25,08,52,13.80
2019,06,25,08,53,13.90
2019,06,25,08,54,13.90
2019,06,25,08,55,14.00
2019,06,25,08,56,14.10
2019,06,25,08,57,14.20
2019,06,25,08,58,14.20
2019,06,25,08,59,14.20
2019,06,25,09,00,14.20
2019,06,25,09,01,14.20
2019,06,25,09,02,14.20
2019,06,25,09,03,14.20
2019,06,25,09,04,14.20
2019,06,25,09,05,14.20
2019,06,25,09,06,14.30
2019,06,25,09,07,14.20
2019,06,25,09,08,14.20
2019,06,25,09,09,14.20
2019,06,25,09,10,14.20
2019,06,25,09,11,14.20
2019,06,25,09,12,14.20
2019,06,25,09,13,14.20
2019,06,25,09,14,14.20
2019,06,25,09,15,14.20
2019,06,25,09,16,14.20
2019,06,25,09,17,14.20
2019,06,25,09,18,14.30
2019,06,25,09,19,14.50
2019,06,25,09,20,14.50
2019,06,25,09,21,14.50
2019,06,25,09,22,14.60
2019,06,25,09,23,14.70
2019,06,25,09,24,14.80
2019,06,25,09,25,15.00
2019,06,25,09,26,15.10
2019,06,25,09,27,15.10
2019,06,25,09,28,15.20
2019,06,25,09,29,15.30
2019,06,25,09,30,15.50
2019,06,25,09,31,15.60
2019,06,25,09,32,15.80
2019,06,25,09,33,15.90
2019,06,25,09,34,16.00
2019,06,25,09,35,16.20
2019,06,25,09,36,16.30
2019,06,25,09,37,16.40
2019,06,25,09,38,16.60
2019,06,25,09,39,16.70
2019,06,25,09,40,16.90
2019,06,25,09,41,17.00
2019,06,25,09,42,17.20
2019,06,25,09,43,17.30
2019,06,25,09,44,17.30
2019,06,25,09,45,17.50
2019,06,25,09,46,17.50
2019,06,25,09,47,17.60
2019,06,25,09,48,17.70
2019,06,25,09,49,17.70
2019,06,25,09,50,17.70
2019,06,25,09,51,17.70
2019,06,25,09,52,17.60
2019,06,25,09,53,17.50
2019,06,25,09,54,17.30
2019,06,25,09,55,17.20
2019,06,25,09,56,17.10
2019,06,25,09,57,17.00
2019,06,25,09,58,16.90
2019,06,25,09,59,17.00
2019,06,25,10,00,17.00
2019,06,25,10,01,17.10
2019,06,25,10,02,17.20
2019,06,25,10,03,17.30
2019,06,25,10,04,17.40
2019,06,25,10,05,17.50
2019,06,25,10,06,17.60
2019,06,25,10,07,17.80
2019,06,25,10,08,17.90
2019,06,25,10,09,18.10
2019,06,25,10,10,18.30
2019,06,25,10,11,18.30
2019,06,25,10,12,18.40
2019,06,25,10,13,18.40
2019,06,25,10,14,18.30
2019,06,25,10,15,18.30
2019,06,25,10,16,18.20
2019,06,25,10,17,17.70
2019,06,25,10,18,17.10
2019,06,25,10,19,16.50
2019,06,25,10,20,16.00
2019,06,25,10,21,15.60
2019,06,25,10,22,15.30
2019,06,25,10,23,15.30
2019,06,25,10,24,15.20
2019,06,25,10,25,15.10
2019,06,25,10,26,15.00
2019,06,25,10,27,15.00
2019,06,25,10,28,14.90
2019,06,25,10,29,14.80
2019,06,25,10,30,14.80
2019,06,25,10,31,14.90
2019,06,25,10,32,14.90
2019,06,25,10,33,15.00
2019,06,25,10,34,15.20
2019,06,25,10,35,15.50
2019,06,25,10,36,15.60
2019,06,25,10,37,15.60
2019,06,25,10,38,15.50
2019,06,25,10,39,15.30
2019,06,25,10,40,15.10
2019,06,25,10,41,15.00
2019,06,25,10,42,14.90
2019,06,25,10,43,14.80
2019,06,25,10,44,14.70
2019,06,25,10,45,14.70
2019,06,25,10,46,14.80
2019,06,25,10,47,14.80
2019,06,25,10,48,14.80
2019,06,25,10,49,14.80
2019,06,25,10,50,14.90
2019,06,25,10,51,15.10
2019,06,25,10,52,15.30
2019,06,25,10,53,15.40
2019,06,25,10,54,15.40
2019,06,25,10,55,15.40
2019,06,25,10,56,15.40
2019,06,25,10,57,15.30
2019,06,25,10,58,15.30
2019,06,25,10,59,15.20
2019,06,25,11,00,15.30
2019,06,25,11,01,15.40
2019,06,25,11,02,15.60
2019,06,25,11,03,15.70
2019,06,25,11,04,15.70
2019,06,25,11,05,15.70
2019,06,25,11,06,15.70
2019,06,25,11,07,15.60
2019,06,25,11,08,15.50
2019,06,25,11,09,15.40
2019,06,25,11,10,15.40
2019,06,25,11,11,15.50
2019,06,25,11,12,15.50
2019,06,25,11,13,15.50
2019,06,25,11,14,15.60
2019,06,25,11,15,15.70
2019,06,25,11,16,15.80
2019,06,25,11,17,15.80
2019,06,25,11,18,15.90
2019,06,25,11,19,16.00
2019,06,25,11,20,16.10
2019,06,25,11,21,16.10
2019,06,25,11,22,16.20
2019,06,25,11,23,16.30
2019,06,25,11,24,16.40
2019,06,25,11,25,16.60
2019,06,25,11,26,16.80
2019,06,25,11,27,16.90
2019,06,25,11,28,17.00
2019,06,25,11,29,17.00
2019,06,25,11,30,17.20
2019,06,25,11,31,17.30
2019,06,25,11,32,17.30
2019,06,25,11,33,17.40
2019,06,25,11,34,17.40
2019,06,25,11,35,17.40
2019,06,25,11,36,17.30
2019,06,25,11,37,17.30
2019,06,25,11,38,17.30
2019,06,25,11,39,17.30
2019,06,25,11,40,17.40
2019,06,25,11,41,17.50
2019,06,25,11,42,17.60
2019,06,25,11,43,17.70
2019,06,25,11,44,17.90
2019,06,25,11,45,18.10
2019,06,25,11,46,18.10
2019,06,25,11,47,17.90
2019,06,25,11,48,18.00
2019,06,25,11,49,18.10
2019,06,25,11,50,18.00
2019,06,25,11,51,17.90
2019,06,25,11,52,18.00
2019,06,25,11,53,18.10
2019,06,25,11,54,18.20
2019,06,25,11,55,18.20
2019,06,25,11,56,18.40
2019,06,25,11,57,18.60
2019,06,25,11,58,18.70
2019,06,25,11,59,18.80
2019,06,25,12,00,18.80
2019,06,25,12,01,18.80
2019,06,25,12,02,18.90
2019,06,25,12,03,18.90
2019,06,25,12,04,19.00
2019,06,25,12,05,19.10
2019,06,25,12,06,19.20
2019,06,25,12,07,19.20
2019,06,25,12,08,19.30
2019,06,25,12,09,19.40
2019,06,25,12,10,19.60
2019,06,25,12,11,19.70
2019,06,25,12,12,19.80
2019,06,25,12,13,19.80
2019,06,25,12,14,19.70
2019,06,25,12,15,19.50
2019,06,25,12,16,19.30
2019,06,25,12,17,19.10
2019,06,25,12,18,19.00
2019,06,25,12,19,18.90
2019,06,25,12,20,18.90
2019,06,25,12,21,19.10
2019,06,25,12,22,19.20
2019,06,25,12,23,19.30
2019,06,25,12,24,19.40
2019,06,25,12,25,19.50
2019,06,25,12,26,19.50
2019,06,25,12,27,19.40
2019,06,25,12,28,19.40
2019,06,25,12,29,19.50
2019,06,25,12,30,19.60
2019,06,25,12,31,19.60
2019,06,25,12,32,19.70
2019,06,25,12,33,19.70
2019,06,25,12,34,19.70
2019,06,25,12,35,19.80
2019,06,25,12,36,19.90
2019,06,25,12,37,19.90
2019,06,25,12,38,19.90
2019,06,25,12,39,19.90
2019,06,25,12,40,19.90
2019,06,25,12,41,20.00
2019,06,25,12,42,20.10
2019,06,25,12,43,20.10
2019,06,25,12,44,20.20
2019,06,25,12,45,20.20
2019,06,25,12,46,20.30
2019,06,25,12,47,20.30
2019,06,25,12,48,20.30
2019,06,25,12,49,20.40
2019,06,25,12,50,20.30
2019,06,25,12,51,20.10
2019,06,25,12,52,19.80
2019,06,25,12,53,19.60
2019,06,25,12,54,19.50
2019,06,25,12,55,19.50
2019,06,25,12,56,19.50
2019,06,25,12,57,19.40
2019,06,25,12,58,19.20
2019,06,25,12,59,19.10
2019,06,25,13,00,19.00
2019,06,25,13,01,18.90
2019,06,25,13,02,18.90
2019,06,25,13,03,18.90
2019,06,25,13,04,18.90
2019,06,25,13,05,18.90
2019,06,25,13,06,19.00
2019,06,25,13,07,19.10
2019,06,25,13,08,19.10
2019,06,25,13,09,19.10
2019,06,25,13,10,19.10
2019,06,25,13,11,19.10
2019,06,25,13,12,19.10
2019,06,25,13,13,19.10
2019,06,25,13,14,19.10
2019,06,25,13,15,19.10
2019,06,25,13,16,19.00
2019,06,25,13,17,18.80
2019,06,25,13,18,18.60
2019,06,25,13,19,18.50
2019,06,25,13,20,18.30
2019,06,25,13,21,18.20
2019,06,25,13,22,18.00
2019,06,25,13,23,17.80
2019,06,25,13,24,17.70
2019,06,25,13,25,17.50
2019,06,25,13,26,17.50
2019,06,25,13,27,17.60
2019,06,25,13,28,17.80
2019,06,25,13,29,18.10
2019,06,25,13,30,18.50
2019,06,25,13,31,18.90
2019,06,25,13,32,19.20
2019,06,25,13,33,19.30
2019,06,25,13,34,19.30
2019,06,25,13,35,19.30
2019,06,25,13,36,19.10
2019,06,25,13,37,18.90
2019,06,25,13,38,18.80
2019,06,25,13,39,18.60
2019,06,25,13,40,18.20
2019,06,25,13,41,17.80
2019,06,25,13,42,17.40
2019,06,25,13,43,17.20
2019,06,25,13,44,17.00
2019,06,25,13,45,16.90
2019,06,25,13,46,16.90
2019,06,25,13,47,16.90
2019,06,25,13,48,17.00
2019,06,25,13,49,17.10
2019,06,25,13,50,17.30
2019,06,25,13,51,17.30
2019,06,25,13,52,17.40
2019,06,25,13,53,17.60
2019,06,25,13,54,17.70
2019,06,25,13,55,17.80
2019,06,25,13,56,17.70
2019,06,25,13,57,17.70
2019,06,25,13,58,17.80
2019,06,25,13,59,17.80
2019,06,25,14,00,17.90
2019,06,25,14,01,17.90
2019,06,25,14,02,17.90
2019,06,25,14,03,17.90
2019,06,25,14,04,18.00
2019,06,25,14,05,18.10
2019,06,25,14,06,18.20
2019,06,25,14,07,18.20
2019,06,25,14,08,18.00
2019,06,25,14,09,17.90
2019,06,25,14,10,17.70
2019,06,25,14,11,17.60
2019,06,25,14,12,17.50
2019,06,25,14,13,17.50
2019,06,25,14,14,17.40
2019,06,25,14,15,17.50
2019,06,25,14,16,17.60
2019,06,25,14,17,17.60
2019,06,25,14,18,17.60
2019,06,25,14,19,17.50
2019,06,25,14,20,17.50
2019,06,25,14,21,17.40
2019,06,25,14,22,17.40
2019,06,25,14,23,17.40
2019,06,25,14,24,17.30
2019,06,25,14,25,17.20
2019,06,25,14,26,17.00
2019,06,25,14,27,17.10
2019,06,25,14,28,17.10
2019,06,25,14,29,17.00
2019,06,25,14,30,17.10
2019,06,25,14,31,17.30
2019,06,25,14,32,17.40
2019,06,25,14,33,17.40
2019,06,25,14,34,17.40
2019,06,25,14,35,17.50
2019,06,25,14,36,17.40
2019,06,25,14,37,17.40
2019,06,25,14,38,17.40
2019,06,25,14,39,17.40
2019,06,25,14,40,17.30
2019,06,25,14,41,17.30
2019,06,25,14,42,17.30
2019,06,25,14,43,17.30
2019,06,25,14,44,17.30
2019,06,25,14,45,17.40
2019,06,25,14,46,17.40
2019,06,25,14,47,17.40
2019,06,25,14,48,17.40
2019,06,25,14,49,17.50
2019,06,25,14,50,17.60
2019,06,25,14,51,17.80
2019,06,25,14,52,17.90
2019,06,25,14,53,17.80
2019,06,25,14,54,17.80
2019,06,25,14,55,17.70
2019,06,25,14,56,17.70
2019,06,25,14,57,17.90
2019,06,25,14,58,18.00
2019,06,25,14,59,18.10
2019,06,25,15,00,18.00
2019,06,25,15,01,17.90
2019,06,25,15,02,17.80
2019,06,25,15,03,17.60
2019,06,25,15,04,17.50
2019,06,25,15,05,17.40
2019,06,25,15,06,17.30
2019,06,25,15,07,17.30
2019,06,25,15,08,17.30
2019,06,25,15,09,17.40
2019,06,25,15,10,17.40
2019,06,25,15,11,17.50
2019,06,25,15,12,17.50
2019,06,25,15,13,17.50
2019,06,25,15,14,17.60
2019,06,25,15,15,17.50
2019,06,25,15,16,17.40
2019,06,25,15,17,17.40
2019,06,25,15,18,17.40
2019,06,25,15,19,17.50
2019,06,25,15,20,17.70
2019,06,25,15,21,17.60
2019,06,25,15,22,17.70
2019,06,25,15,23,17.80
2019,06,25,15,24,17.90
2019,06,25,15,25,18.10
2019,06,25,15,26,18.40
2019,06,25,15,27,18.60
2019,06,25,15,28,18.70
2019,06,25,15,29,18.70
2019,06,25,15,30,18.70
2019,06,25,15,31,18.60
2019,06,25,15,32,18.60
2019,06,25,15,33,18.60
2019,06,25,15,34,18.60
2019,06,25,15,35,18.60
2019,06,25,15,36,18.60
2019,06,25,15,37,18.70
2019,06,25,15,38,18.80
2019,06,25,15,39,19.00
2019,06,25,15,40,19.10
2019,06,25,15,41,19.10
2019,06,25,15,42,19.20
2019,06,25,15,43,19.30
2019,06,25,15,44,19.40
2019,06,25,15,45,19.40
2019,06,25,15,46,19.40
2019,06,25,15,47,19.30
2019,06,25,15,48,19.30
2019,06,25,15,49,19.30
2019,06,25,15,50,19.10
2019,06,25,15,51,19.10
2019,06,25,15,52,19.20
2019,06,25,15,53,19.30
2019,06,25,15,54,19.40
2019,06,25,15,55,19.40
2019,06,25,15,56,19.40
2019,06,25,15,57,19.40
2019,06,25,15,58,19.40
2019,06,25,15,59,19.30
2019,06,25,16,00,19.20
2019,06,25,16,01,19.20
2019,06,25,16,02,19.10
2019,06,25,16,03,19.20
2019,06,25,16,04,19.30
2019,06,25,16,05,19.30
2019,06,25,16,06,19.30
2019,06,25,16,07,19.20
2019,06,25,16,08,19.10
2019,06,25,16,09,19.10
2019,06,25,16,10,19.10
2019,06,25,16,11,19.10
2019,06,25,16,12,19.30
2019,06,25,16,13,19.50
2019,06,25,16,14,19.50
2019,06,25,16,15,19.60
2019,06,25,16,16,19.70
2019,06,25,16,17,19.80
2019,06,25,16,18,19.90
2019,06,25,16,19,19.70
2019,06,25,16,20,19.70
2019,06,25,16,21,19.80
2019,06,25,16,22,19.60
2019,06,25,16,23,19.60
2019,06,25,16,24,19.60
2019,06,25,16,25,19.60
2019,06,25,16,26,19.60
2019,06,25,16,27,19.70
2019,06,25,16,28,19.90
2019,06,25,16,29,20.00
2019,06,25,16,30,20.20
2019,06,25,16,31,20.20
2019,06,25,16,32,20.20
2019,06,25,16,33,20.20
2019,06,25,16,34,20.20
2019,06,25,16,35,20.20
2019,06,25,16,36,20.20
2019,06,25,16,37,20.20
2019,06,25,16,38,20.10
2019,06,25,16,39,19.90
2019,06,25,16,40,19.80
2019,06,25,16,41,19.70
2019,06,25,16,42,19.70
2019,06,25,16,43,19.80
2019,06,25,16,44,19.70
2019,06,25,16,45,19.60
2019,06,25,16,46,19.50
2019,06,25,16,47,19.40
2019,06,25,16,48,19.20
2019,06,25,16,49,19.10
2019,06,25,16,50,19.10
2019,06,25,16,51,19.10
2019,06,25,16,52,19.10
2019,06,25,16,53,19.20
2019,06,25,16,54,19.40
2019,06,25,16,55,19.50
2019,06,25,16,56,19.60
2019,06,25,16,57,19.60
2019,06,25,16,58,19.60
2019,06,25,16,59,19.60
2019,06,25,17,00,19.60
2019,06,25,17,01,19.40
2019,06,25,17,02,19.30
2019,06,25,17,03,19.40
2019,06,25,17,04,19.40
2019,06,25,17,05,19.50
2019,06,25,17,06,19.50
2019,06,25,17,07,19.50
2019,06,25,17,08,19.40
2019,06,25,17,09,19.40
2019,06,25,17,10,19.50
2019,06,25,17,11,19.60
2019,06,25,17,12,19.60
2019,06,25,17,13,19.60
2019,06,25,17,14,19.60
2019,06,25,17,15,19.60
2019,06,25,17,16,19.60
2019,06,25,17,17,19.60
2019,06,25,17,18,19.60
2019,06,25,17,19,19.60
2019,06,25,17,20,19.70
2019,06,25,17,21,19.80
2019,06,25,17,22,19.80
2019,06,25,17,23,19.80
2019,06,25,17,24,19.80
2019,06,25,17,25,19.80